OneWeb SL0435

operational
NORAD ID: 51632 Int'l Des: 2022-012 Owner: ONEWEBN Country: UK Constellation: oneweb
LEOCIRCULARPOLARONEWEB_TYPE

About OneWeb SL0435

Description loading...

Live Position

Loading 3D Globe...

Upcoming Passes

Altitude History

Altitude vs Time

uPlot chart will show altitude changes over time

Two-Line Element Set

1 51632U 22012L 25305.65024099 -.00000413 00000-0 -12197-2 0 9996
2 51632 87.8781 81.6441 0001779 109.1997 250.9323 13.10375806179513
Epoch: Nov 1, 2025 • Age: 21 hours

Current Status

Altitude 1229.7 km
Velocity 7.24 km/s
Sub-Earth Point -21.05°S, 28.45°E
Launch Date Feb 10, 2022
Age 3.7 years
Type internet

Technical Details

Classification Payload
Mass 148.00 kg
Dry Mass 140.00 kg
Total Mass 148.00 kg
Length 1.30 m
Diameter 1.00 m
Span 5.00 m
Shape Trapezoid+2 pan
Manufacturer ONEWUS
Bus Type ARROW
Phase Status In Orbit
Owner/State ONEWEBN/UK

Large Constellations

Loading constellations...